Weather History for Leesburg, FL

Change the Weather History Date:

Friday, February 22, 2013

  Actual Average Record
Temperature  
Mean Temperature 74 °F -  
Max Temperature 86 °F 73 °F 89 °F (1991)
Min Temperature 62 °F 51 °F 31 °F (1978)
Cooling Degree Days 9    
Growing Degree Days 24 (Base 50)    
Moisture  
Dew Point 64 °F    
Average Humidity 80    
Maximum Humidity 100    
Minimum Humidity 43    
Precipitation  
Precipitation 0.00 in - - ()
Sea Level Pressure  
Sea Level Pressure 30.05 in    
Wind  
Wind Speed 4 mph (SE)    
Max Wind Speed 12 mph    
Max Gust Speed -    
Visibility 7 miles    
Events      
Averages and records for this station are not official NWS values.
T = Trace of Precipitation, MM = Missing Value Source: NWS Daily Summary

Daily Weather History Graph

Daily Weather History Graph

Search for Another Location

Airport:

Trip Planner

Search our weather history database for the weather conditions in past years. The results will help you decide how hot, cold, wet, or windy it might be!

Date:

Astronomy

Feb. 22, 2013 Rise Set
Actual Time 6:59 AM EST 6:22 PM EST
Civil Twilight 6:35 AM EST 6:46 PM EST
Nautical Twilight 6:07 AM EST 7:14 PM EST
Astronomical Twilight 5:40 AM EST 7:41 PM EST
Moon 3:41 PM EST (2/22) 4:33 AM EST (2/22)
Length of Visible Light 12h 11m
Length of Day
11h 23m
Waxing Gibbous, 90% of the Moon is Illuminated
Feb 22
Waxing Gibbous
Feb 25
Full
Mar 4
Last Quarter
Mar 11
New
Mar 19
First Quarter

Hourly Weather History & Observations

Time (EST) Temp. Heat Index Dew Point Humidity Pressure Visibility Wind Dir Wind Speed Gust Speed Precip Events Conditions
12:53 AM 63.0 °F - 60.1 °F 90% 30.05 in 10.0 mi East 3.5 mph - N/A   Scattered Clouds
1:53 AM 66.0 °F - 64.0 °F 93% 30.05 in 9.0 mi SE 4.6 mph - N/A   Partly Cloudy
2:53 AM 66.0 °F - 64.0 °F 93% 30.05 in 8.0 mi SE 4.6 mph - N/A   Partly Cloudy
3:53 AM 64.0 °F - 63.0 °F 96% 30.05 in 5.0 mi Calm Calm - N/A   Clear
4:34 AM 64.4 °F - 62.6 °F 94% 30.05 in 1.8 mi ESE 3.5 mph - N/A   Clear
4:39 AM 64.4 °F - 64.4 °F 100% 30.06 in 3.0 mi SE 3.5 mph - N/A   Clear
4:53 AM 63.0 °F - 63.0 °F 100% 30.06 in 3.0 mi Calm Calm - N/A   Clear
4:56 AM 62.6 °F - 62.6 °F 100% 30.06 in 1.8 mi Calm Calm - N/A   Clear
5:09 AM 64.4 °F - 62.6 °F 94% 30.06 in 3.0 mi SE 3.5 mph - N/A   Clear
5:35 AM 64.4 °F - 62.6 °F 94% 30.06 in 2.5 mi SE 3.5 mph - N/A   Clear
5:42 AM 64.4 °F - 64.4 °F 100% 30.07 in 4.0 mi Calm Calm - N/A   Clear
5:53 AM 64.9 °F - 64.0 °F 97% 30.07 in 4.0 mi Calm Calm - N/A   Clear
5:59 AM 64.4 °F - 62.6 °F 94% 30.07 in 1.8 mi ESE 3.5 mph - N/A   Clear
6:09 AM 64.4 °F - 64.4 °F 100% 30.07 in 3.0 mi SE 3.5 mph - N/A   Clear
6:53 AM 64.0 °F - 63.0 °F 96% 30.07 in 4.0 mi SE 3.5 mph - N/A   Clear
7:53 AM 66.0 °F - 64.9 °F 96% 30.09 in 5.0 mi SSE 3.5 mph - N/A   Clear
8:53 AM 69.1 °F - 64.9 °F 87% 30.10 in 10.0 mi South 5.8 mph - N/A   Clear
9:53 AM 75.9 °F - 64.9 °F 69% 30.10 in 10.0 mi South 9.2 mph - N/A   Clear
10:53 AM 77.0 °F - 63.0 °F 62% 30.10 in 10.0 mi South 9.2 mph - N/A   Clear
11:53 AM 82.0 °F 83.1 °F 63.0 °F 52% 30.09 in 10.0 mi South 11.5 mph - N/A   Clear
12:53 PM 82.9 °F 83.7 °F 62.1 °F 49% 30.06 in 10.0 mi South 9.2 mph - N/A   Clear
1:53 PM 84.0 °F 84.5 °F 62.1 °F 47% 30.04 in 10.0 mi SSE 5.8 mph - N/A   Clear
2:53 PM 84.9 °F 85.0 °F 61.0 °F 44% 30.02 in 10.0 mi SSE 4.6 mph - N/A   Clear
3:53 PM 86.0 °F 86.1 °F 61.0 °F 43% 30.01 in 10.0 mi SE 5.8 mph - N/A   Clear
4:53 PM 84.9 °F 85.0 °F 61.0 °F 44% 30.00 in 10.0 mi SE 4.6 mph - N/A   Clear
5:53 PM 81.0 °F 81.6 °F 60.1 °F 49% 30.01 in 10.0 mi SE 5.8 mph - N/A   Clear
6:53 PM 77.0 °F - 62.1 °F 60% 30.02 in 10.0 mi Calm Calm - N/A   Scattered Clouds
7:53 PM 75.9 °F - 68.0 °F 76% 30.04 in 10.0 mi ESE 10.4 mph - N/A   Partly Cloudy
8:53 PM 73.0 °F - 68.0 °F 84% 30.04 in 10.0 mi SE 5.8 mph - N/A   Clear
9:53 PM 72.0 °F - 68.0 °F 87% 30.06 in 10.0 mi SE 5.8 mph - N/A   Clear
10:53 PM 71.1 °F - 68.0 °F 90% 30.05 in 10.0 mi Calm Calm - N/A   Clear
11:53 PM 71.1 °F - 69.1 °F 93% 30.03 in 10.0 mi South 11.5 mph - N/A   Scattered Clouds